GFSMW_850_spd_153.txt.gz
Wind_Speed
10 10 11 13 13 14 16 18 21 24 26 29 32 33 34 34 33 34 34 33 32 31 28 27 29 28 30 28 35 25 42 45 51 40 41 39 46 49 48 44 41 40 40
8 11 12 13 15 17 18 19 21 23 26 28 29 31 31 32 34 34 33 33 33 32 29 26 27 28 27 28 31 36 31 45 50 44 39 26 35 44 51 49 47 44 44
8 12 12 14 16 18 20 20 21 22 24 25 27 30 31 34 38 40 38 36 32 31 31 28 24 23 22 22 28 34 32 32 40 51 44 16 29 32 45 52 51 50 49
6 10 12 14 16 17 18 19 20 21 23 25 27 30 33 35 37 40 39 38 36 33 31 29 26 25 27 24 18 18 29 37 38 42 53 54 28 23 23 35 49 52 53
6 9 12 14 15 16 18 19 21 22 24 25 26 28 30 32 34 38 39 38 37 35 32 30 30 28 25 25 23 22 23 31 34 44 37 50 47 41 19 17 30 42 56
6 7 11 13 15 16 17 18 20 21 22 23 24 26 28 31 34 37 39 39 38 37 36 35 32 30 30 27 26 28 27 29 28 37 41 40 32 42 34 40 35 35 43
4 7 12 14 16 17 17 18 19 20 22 23 24 26 27 29 32 34 35 37 39 38 38 38 35 34 31 31 29 32 33 30 28 31 39 39 36 38 40 40 42 38 34
5 9 13 14 15 16 17 18 19 20 21 22 24 25 26 28 29 31 32 33 35 35 34 34 33 33 32 32 33 29 30 35 30 24 36 39 42 49 49 45 31 40 37
4 7 10 12 14 15 17 18 18 19 20 22 23 25 26 26 27 28 29 31 31 32 31 32 33 31 32 33 33 31 28 29 35 30 24 38 41 41 45 49 46 45 38
1 5 9 11 13 14 15 16 17 19 20 21 23 24 26 26 26 27 28 29 30 31 32 31 32 30 30 32 31 30 27 27 29 35 25 30 38 44 43 48 43 44 41
2 5 8 10 11 12 13 15 16 17 18 19 21 23 24 25 26 27 28 29 29 29 31 30 32 32 30 29 31 28 23 23 24 29 34 23 31 37 38 49 54 46 49
1 4 7 9 11 12 14 15 15 16 18 18 20 22 23 24 25 26 27 28 29 30 30 31 30 30 31 32 29 29 24 16 16 20 30 31 21 32 33 37 40 46 47
1 4 4 9 11 13 14 15 15 17 17 17 18 22 24 25 25 26 26 27 27 29 30 32 34 34 32 31 29 27 23 14 11 9 12 26 25 27 29 36 40 41 45
1 3 6 8 11 13 14 15 16 17 17 15 17 22 24 26 25 25 26 27 28 29 31 32 33 36 35 32 29 26 24 18 13 11 6 6 17 18 26 32 37 40 41
1 3 7 8 11 11 12 14 15 16 16 16 18 21 24 24 23 24 24 25 27 29 31 32 33 37 38 37 32 29 28 24 20 19 14 9 5 4 14 22 31 39 42
2 2 6 8 10 11 13 14 15 15 15 16 18 20 23 24 24 23 23 24 26 28 29 32 34 37 38 35 33 32 32 31 28 25 25 18 12 9 5 5 7 23 38
4 2 4 6 8 10 12 13 14 14 13 16 19 21 24 25 24 23 23 24 25 26 29 32 34 36 39 37 35 36 37 37 38 36 34 30 28 19 13 8 6 4 7
4 2 2 4 7 9 10 11 11 13 15 18 20 21 23 24 24 23 23 24 25 27 29 30 33 35 37 37 37 36 37 38 39 40 41 39 37 32 24 18 17 14 9
4 3 2 3 5 7 8 10 10 13 16 19 21 21 21 24 24 25 25 25 26 27 30 32 34 36 37 37 37 37 38 39 40 40 39 40 40 37 32 26 26 22 18
6 4 3 2 3 6 8 8 11 13 17 19 20 20 21 24 25 24 25 25 26 27 28 31 33 36 37 39 39 38 38 37 36 36 37 37 37 37 37 34 31 31 27
7 6 4 3 4 7 8 8 11 15 16 16 18 19 21 23 24 24 24 26 27 28 29 31 33 34 37 37 38 38 39 37 35 36 37 36 35 32 32 34 36 33 27
9 8 7 5 6 7 8 9 12 14 14 15 17 19 21 22 24 24 24 25 27 29 30 31 32 34 35 36 36 36 36 34 34 36 35 34 33 34 34 34 31 29 30
10 10 8 7 6 7 9 9 12 12 14 14 17 19 20 22 23 24 26 27 29 29 31 32 32 34 34 34 33 33 33 33 33 33 32 32 33 34 35 36 34 34 35
11 11 10 8 7 8 10 10 11 11 12 14 16 18 19 20 22 23 25 27 28 28 28 29 30 31 32 33 34 32 32 30 30 31 32 33 34 35 36 36 38 39 38
13 12 11 9 8 8 8 9 9 10 11 12 14 15 17 18 20 21 23 23 25 26 26 26 26 27 29 28 28 30 31 31 30 29 31 34 36 38 38 39 39 38 38
14 13 13 11 9 8 7 7 8 8 9 9 11 12 14 15 16 17 18 19 20 20 21 21 22 23 23 24 26 26 27 26 28 30 34 35 36 38 39 39 39 39 38

GFSMW_850_spd_159.txt.gz
Wind_Speed
7 4 2 1 3 4 4 6 6 8 8 8 9 9 9 8 10 12 15 17 19 20 20 22 23 23 24 26 26 28 29 29 22 30 33 39 37 41 43 47 40 40 40
9 5 2 1 3 3 4 5 6 7 7 8 8 9 9 9 9 11 14 17 19 20 19 23 25 28 28 29 27 26 29 26 23 24 31 30 32 36 42 40 43 42 39
13 7 4 2 1 2 3 4 6 7 7 7 8 9 8 8 10 13 14 17 18 19 20 21 22 23 25 25 24 24 25 32 33 23 19 12 24 30 32 39 49 49 46
11 8 6 4 1 1 3 4 5 7 9 9 9 10 10 11 12 13 14 15 17 18 20 25 24 22 23 22 25 23 24 27 32 34 33 34 35 17 21 35 37 41 50
13 9 6 4 2 2 2 4 6 7 8 9 10 10 10 11 12 14 16 16 16 17 18 24 25 25 25 26 26 25 23 24 27 27 34 38 47 46 35 31 30 34 43
11 9 6 5 3 3 4 4 6 7 8 9 9 11 12 12 13 15 15 16 16 16 18 24 24 24 26 27 27 27 24 23 25 27 26 29 30 34 29 32 36 43 35
12 8 6 4 3 4 5 5 6 6 7 8 10 10 11 12 12 14 15 17 18 18 20 23 24 25 26 27 26 27 25 24 26 26 28 30 30 33 33 37 42 34 35
10 7 5 3 3 4 4 5 5 5 8 8 9 9 10 10 10 12 14 14 16 18 20 22 23 25 25 27 28 27 27 26 28 22 21 27 26 28 37 38 41 35 39
11 7 5 4 3 4 5 5 5 5 7 7 8 9 9 10 11 11 13 14 15 17 20 22 23 24 26 27 28 26 26 28 28 26 25 25 25 23 22 35 42 34 37
12 9 6 4 3 3 4 4 4 6 6 6 7 8 9 9 10 11 12 14 15 17 19 21 22 23 26 26 26 25 25 27 28 28 27 25 24 24 27 31 36 40 34
12 8 5 3 2 1 1 1 4 5 6 6 6 8 9 10 10 10 12 14 15 17 19 20 22 24 26 26 26 26 26 27 29 30 28 27 27 24 22 26 30 34 32
11 7 4 2 1 0 1 2 3 5 5 6 6 8 10 10 10 12 14 15 16 17 19 20 22 23 26 26 26 26 26 25 28 29 29 29 27 24 21 19 22 24 28
12 8 5 4 2 1 1 2 3 5 5 6 8 9 10 11 12 12 14 16 16 18 19 20 22 23 26 26 25 24 25 25 26 27 26 30 29 26 23 20 19 20 21
13 9 6 5 3 1 1 2 3 5 6 7 9 12 12 13 12 12 13 16 16 18 19 21 22 22 24 25 24 24 26 27 27 28 27 28 28 28 25 24 21 18 17
13 11 10 6 3 1 1 2 3 5 7 9 9 10 10 15 13 13 13 16 16 16 21 20 23 26 23 23 24 25 25 27 29 30 29 30 27 20 21 23 24 23 16
16 12 9 7 6 2 2 2 2 2 3 4 6 7 9 10 11 12 13 12 13 17 21 20 24 29 27 22 21 25 26 29 31 33 33 33 33 29 24 25 24 23 24
18 15 12 10 8 5 4 3 2 2 3 4 6 8 8 9 11 12 11 12 13 14 15 20 21 26 28 25 20 27 28 29 33 35 35 34 36 34 31 26 27 27 25
19 16 14 11 9 6 5 4 4 4 5 6 7 7 10 11 11 11 12 12 12 13 14 16 19 19 28 27 24 24 25 29 31 34 35 35 35 34 31 30 28 29 28
18 16 14 12 10 8 6 6 6 6 6 6 8 9 11 11 11 11 12 12 12 12 13 15 18 21 24 28 29 29 24 26 28 30 34 35 36 36 33 29 26 28 28
18 17 15 13 12 10 8 10 9 9 9 9 9 8 10 10 10 10 10 11 11 11 11 13 16 19 21 27 29 30 29 27 27 28 29 33 35 35 35 36 33 31 29
19 17 15 12 12 13 11 11 12 11 11 11 11 10 9 9 9 8 10 9 10 10 11 12 13 16 20 24 26 28 29 27 26 28 29 30 32 33 34 35 35 31 29
19 16 15 13 12 13 13 13 13 12 12 12 11 10 10 10 9 9 9 9 9 10 11 13 12 14 18 21 23 25 25 25 23 25 27 27 28 29 30 32 33 32 32
19 16 15 14 13 13 13 13 13 12 12 10 9 8 8 7 8 9 10 10 11 12 13 12 14 14 19 22 23 24 24 24 24 23 24 25 26 27 28 30 32 34 35
22 17 17 16 14 14 14 12 12 11 10 8 6 5 4 5 7 8 9 10 11 12 13 14 14 17 19 23 25 26 27 27 26 25 24 26 27 28 29 30 32 33 33
18 20 21 20 18 15 13 13 11 9 6 5 3 1 3 4 4 5 7 9 12 14 15 16 16 17 19 21 22 22 22 23 22 21 21 23 25 27 28 29 30 30 33
18 18 18 18 17 14 12 11 11 10 7 5 3 4 2 3 4 6 9 8 11 13 14 14 15 16 17 18 18 18 17 18 20 18 20 22 23 25 25 26 27 28 30

GFSMW_850_spd_162.txt.gz
Wind_Speed
14 8 7 3 2 2 1 3 5 6 3 3 4 4 5 6 7 9 12 14 16 19 18 19 22 24 25 26 26 27 29 29 30 33 36 38 38 38 42 39 41 41 46
13 9 5 3 2 2 1 2 3 5 5 3 5 5 6 7 6 10 11 14 16 16 17 20 22 22 24 25 27 29 29 28 28 27 32 22 36 15 21 30 41 46 44
16 12 7 4 1 1 1 3 4 5 5 3 4 3 3 2 6 8 10 13 14 15 17 21 22 22 23 25 27 27 27 31 28 21 15 14 10 38 26 22 20 37 44
14 12 8 4 2 1 1 3 4 3 5 5 5 5 5 6 8 10 11 11 12 15 19 21 22 23 24 25 26 26 26 25 28 27 17 18 27 26 32 39 32 21 29
15 10 8 6 3 1 1 1 3 3 5 6 7 7 8 8 8 11 11 12 13 13 18 22 23 23 24 25 26 27 26 25 24 25 27 27 23 25 31 40 46 45 33
16 14 9 7 4 3 1 1 3 5 5 7 9 9 10 11 11 12 12 14 14 16 18 22 23 23 23 24 26 26 23 24 22 25 26 23 22 26 29 35 42 38 52
19 14 9 10 5 1 2 3 4 3 5 7 7 8 9 10 11 13 14 15 16 18 21 23 23 23 22 23 24 24 23 23 25 27 24 21 21 19 25 32 38 44 48
17 14 12 8 7 5 2 2 3 2 4 5 6 7 9 8 9 12 14 14 14 16 20 21 21 20 22 22 22 22 21 23 24 25 25 25 22 22 26 29 30 35 39
15 14 11 9 7 4 1 1 2 1 3 5 6 7 7 9 10 11 12 13 14 14 16 19 20 20 22 22 22 22 22 24 23 25 27 26 25 24 23 23 26 31 33
15 14 11 10 8 6 2 4 3 4 2 4 5 5 6 7 8 9 11 12 13 14 15 17 19 21 22 22 23 23 23 24 24 27 27 28 30 27 23 22 22 27 30
17 18 13 10 9 8 7 5 3 2 2 2 2 4 7 7 7 9 11 11 12 14 16 17 19 21 23 23 22 23 25 27 26 27 26 28 31 30 27 22 16 19 21
15 12 11 9 6 5 4 3 1 2 4 5 5 5 6 6 7 8 12 12 12 14 17 18 20 21 23 23 22 22 24 26 28 28 27 29 31 30 31 25 23 20 19
16 13 11 8 6 4 2 1 1 4 5 5 6 8 9 9 7 7 12 14 14 17 18 20 23 24 24 23 21 22 24 24 25 27 27 28 31 31 32 30 28 23 18
20 16 12 10 7 4 3 1 1 4 5 7 11 11 12 11 10 10 12 17 14 18 20 20 24 26 23 22 22 24 24 25 27 27 26 29 30 27 29 30 34 30 22
20 18 12 11 8 5 3 2 3 5 9 10 10 9 8 13 13 12 11 15 18 20 21 19 23 26 24 22 21 25 26 29 29 32 30 29 27 24 23 28 33 34 31
20 18 16 11 7 6 5 5 2 4 5 4 5 6 7 6 9 10 10 12 14 17 20 20 22 26 26 20 18 22 25 28 30 33 34 34 31 29 25 24 27 32 36
21 17 16 13 11 10 8 5 5 5 4 4 4 5 5 7 8 9 10 10 11 12 15 19 18 23 26 23 20 22 24 26 28 31 34 34 35 34 30 25 25 28 31
20 18 17 15 13 10 10 8 7 6 6 6 5 6 6 8 9 9 10 10 10 11 13 16 19 20 24 24 23 22 23 24 26 28 32 33 34 35 34 30 27 28 29
21 19 17 16 15 12 10 9 9 8 8 7 5 6 7 7 8 9 10 9 10 10 12 14 17 20 22 23 24 23 22 23 25 27 29 31 33 34 34 33 32 31 30
22 21 19 17 17 15 15 17 16 15 14 11 8 5 8 8 8 8 8 8 8 9 9 10 15 17 20 21 22 23 24 23 24 25 26 27 30 31 33 35 35 34 33
22 21 20 19 19 18 14 15 13 12 11 11 11 11 10 8 7 6 6 6 6 7 9 9 11 15 18 20 22 23 24 25 24 25 27 28 28 28 29 31 34 33 29
23 19 18 16 18 15 15 16 15 14 13 12 10 9 7 7 6 5 6 6 6 7 9 11 11 14 17 19 20 21 22 23 23 23 24 24 24 26 26 27 28 29 30
22 20 17 17 16 17 16 16 16 15 13 12 9 7 6 4 4 4 5 6 7 8 9 10 11 13 16 18 20 21 21 23 23 22 21 23 24 25 27 29 31 33 34
23 20 19 17 17 16 17 17 16 15 13 10 8 6 4 2 2 3 4 5 7 8 9 11 12 15 17 20 22 23 23 22 20 20 20 20 20 22 23 25 27 29 31
21 22 21 21 19 18 17 15 15 14 11 10 7 5 3 2 2 2 4 6 7 10 12 13 14 16 18 20 21 22 21 20 20 19 19 20 22 23 24 25 26 27 29
21 23 24 22 21 18 17 16 15 13 12 11 8 7 6 5 6 7 8 8 11 12 13 13 14 15 17 19 19 18 17 18 19 19 21 22 22 24 25 26 26 27 28

GFSMW_850_spd_165.txt.gz
Wind_Speed
24 22 16 11 8 4 3 4 5 2 2 3 3 3 4 4 7 11 13 14 15 15 15 16 18 19 22 23 24 25 28 29 33 36 38 33 26 11 14 15 19 22 32
28 19 11 8 5 3 2 3 7 6 4 2 3 3 6 1 6 10 10 12 15 16 19 20 20 19 20 22 24 26 28 29 30 30 28 23 24 8 32 17 17 17 20
28 19 14 8 5 3 2 1 5 7 4 4 3 1 3 5 7 7 8 11 12 16 19 19 19 19 20 21 23 24 25 27 26 24 16 14 13 48 18 32 20 24 24
24 20 14 10 8 3 4 3 5 6 7 5 4 4 4 5 6 9 9 9 10 14 17 19 18 17 18 19 20 20 21 21 24 22 16 14 18 14 30 41 46 36 32
30 23 18 16 9 5 4 1 5 5 6 6 5 6 6 7 6 8 8 8 10 13 17 19 18 18 19 19 20 19 18 19 19 19 23 22 20 18 23 41 55 49 41
29 25 20 13 8 5 5 1 4 5 4 6 7 7 6 7 8 9 9 10 12 14 18 18 19 18 19 20 19 17 17 16 17 18 19 18 19 26 27 35 44 50 54
29 23 14 9 5 4 0 3 2 5 2 4 4 6 5 6 9 11 11 12 14 15 19 21 20 20 20 19 19 17 15 17 16 18 18 20 19 17 23 31 42 47 55
20 15 12 8 6 5 7 7 6 7 0 3 1 5 5 6 8 11 12 13 14 15 17 19 19 20 21 19 18 16 17 17 16 17 19 19 19 20 22 23 28 43 44
20 18 16 14 11 9 10 8 10 7 2 5 2 3 3 5 7 11 13 13 14 16 17 18 19 19 20 19 17 16 19 17 17 18 19 17 22 21 20 21 21 27 36
24 22 18 15 14 12 11 10 10 6 4 6 5 1 3 4 7 11 13 12 13 15 16 17 19 19 20 18 16 16 18 18 18 19 19 21 24 22 21 22 20 21 26
24 21 18 18 15 15 13 9 8 5 4 5 5 3 3 3 6 11 14 11 14 15 16 19 21 19 19 17 17 17 18 18 19 20 21 22 24 24 24 24 25 24 24
27 22 19 17 13 13 11 9 7 4 2 2 1 1 5 5 6 10 15 14 16 18 17 19 21 19 18 19 19 21 21 22 23 21 21 24 25 25 24 26 30 30 25
25 20 17 16 13 11 10 8 4 2 2 4 4 8 10 8 8 11 16 17 16 17 16 18 22 20 17 17 19 21 22 23 25 24 22 23 25 25 24 25 28 32 30
27 22 18 16 12 10 9 6 6 5 7 7 8 9 11 12 12 13 15 16 17 17 15 16 21 21 16 16 18 19 21 23 26 26 25 23 25 24 23 23 26 30 32
27 23 20 16 13 12 10 7 7 6 6 9 10 9 10 13 14 13 13 14 15 16 17 17 21 23 21 20 18 19 21 23 25 27 28 27 25 20 17 20 22 27 31
26 25 21 17 13 12 12 10 8 8 7 9 6 9 8 10 9 8 8 8 11 14 16 16 19 21 23 21 19 19 20 22 24 27 28 28 27 29 21 17 16 21 27
24 24 22 18 13 13 13 11 9 11 8 7 6 8 8 8 6 6 5 7 8 9 13 15 16 19 21 21 19 19 20 22 24 26 27 28 29 30 28 24 22 20 20
24 22 20 18 15 14 14 13 11 12 11 8 9 8 9 8 6 7 6 6 6 9 11 13 15 17 19 19 19 19 19 20 23 24 25 27 28 29 31 29 28 27 27
21 20 20 22 19 19 17 15 13 13 12 9 9 11 9 8 9 8 6 4 4 4 8 11 13 16 18 19 19 19 19 19 21 22 24 26 27 27 27 28 29 28 27
21 24 25 21 19 18 18 19 18 18 17 15 12 13 12 10 10 9 6 2 3 4 4 9 12 15 17 18 20 20 20 20 20 21 23 24 25 25 27 29 30 30 29
28 27 23 22 23 21 20 19 17 15 16 15 13 13 12 10 8 7 6 3 1 3 5 7 11 13 16 18 20 20 21 22 22 22 24 24 24 24 25 26 28 28 26
28 25 23 23 22 19 18 18 17 16 14 13 13 11 8 7 6 4 3 1 1 3 6 8 10 13 14 16 18 20 21 21 21 22 22 22 22 22 23 24 25 26 27
25 23 21 21 21 18 17 18 18 17 16 15 13 11 8 6 4 2 1 2 4 6 8 9 11 13 14 15 17 18 18 18 18 19 18 19 19 20 20 22 22 25 29
23 23 20 19 20 20 19 19 19 18 17 15 13 11 8 6 4 3 1 2 4 6 8 10 12 13 15 17 20 21 21 19 18 18 18 18 17 18 19 21 23 25 27
24 23 19 18 20 20 21 21 20 19 18 15 13 10 9 8 6 6 5 6 7 9 10 11 13 14 16 18 21 21 19 19 18 19 19 19 20 21 23 24 24 24 25
27 24 20 19 20 21 22 20 21 20 18 16 14 13 11 9 8 7 8 9 10 11 12 13 14 16 17 18 20 21 16 14 17 19 20 20 21 23 24 25 25 25 26

GFSMW_850_spd_168.txt.gz
Wind_Speed
25 22 18 13 9 5 5 4 2 3 3 4 5 8 7 4 7 10 13 13 14 14 14 14 15 16 17 18 20 22 24 26 29 31 30 24 20 7 9 26 16 15 15
30 25 19 13 8 6 5 6 5 4 3 2 3 5 4 3 6 9 12 12 12 14 16 16 16 17 18 18 20 22 24 25 27 26 24 19 18 17 20 6 19 15 19
37 28 19 12 7 4 5 4 4 5 3 1 3 4 5 4 6 6 8 11 13 14 16 17 16 16 17 19 20 20 21 22 22 17 18 11 10 41 22 29 23 31 19
34 26 20 15 9 5 4 5 5 6 3 1 1 3 3 2 5 7 9 10 12 13 15 16 16 17 18 18 18 18 18 18 20 18 18 10 12 12 23 31 44 27 35
33 28 22 17 11 5 4 4 4 4 3 2 3 3 3 4 5 6 7 9 11 12 14 16 17 17 17 18 17 16 16 16 19 18 20 19 19 7 16 36 45 43 37
32 27 23 18 11 6 6 6 4 1 1 2 4 5 5 5 6 6 7 9 12 14 16 17 17 17 17 17 16 15 14 16 14 16 16 17 18 21 19 30 41 46 47
35 31 24 15 10 9 9 8 5 2 2 3 4 5 5 6 6 8 10 12 13 15 17 17 17 17 17 15 13 13 14 13 13 15 16 14 15 19 25 28 34 40 47
30 23 16 16 15 11 9 8 5 3 3 4 4 5 5 6 7 9 12 12 13 15 15 16 17 16 15 13 12 12 14 12 12 14 14 15 16 18 19 21 29 42 31
24 22 22 20 14 10 10 9 8 6 5 6 5 5 5 5 7 10 12 11 12 13 15 16 16 15 14 13 12 13 14 14 13 13 13 15 17 17 17 18 19 24 28
26 26 24 19 13 11 10 9 7 6 7 8 6 5 5 6 7 10 10 10 11 12 13 16 16 15 14 14 13 14 14 15 14 13 15 17 17 16 17 18 18 21 25
31 27 22 17 14 11 10 8 6 6 6 8 7 5 4 5 6 7 8 9 12 13 15 17 16 14 14 15 16 16 17 17 16 14 14 17 17 18 18 19 20 22 25
32 28 24 19 14 12 12 9 7 6 5 6 5 4 1 2 4 9 11 12 13 13 15 17 16 14 14 15 16 17 18 19 19 18 16 17 18 18 19 21 23 23 23
31 28 22 17 15 14 13 9 6 6 6 6 5 3 4 5 8 12 12 13 14 13 15 18 18 15 14 15 15 16 17 19 21 21 19 21 22 21 21 20 22 23 24
33 29 23 20 17 14 11 9 7 7 7 8 8 8 9 10 11 12 12 13 15 15 16 18 18 15 15 15 15 16 17 19 21 22 22 22 24 23 22 21 22 24 25
34 30 24 19 19 16 13 11 11 10 9 10 10 9 10 11 10 10 11 12 13 14 13 16 18 17 17 18 17 17 17 18 19 21 22 22 23 22 21 22 22 22 24
33 30 23 21 18 15 14 15 13 12 11 10 10 9 10 10 8 8 9 8 11 13 14 14 17 16 17 16 16 16 17 17 18 19 21 21 20 24 23 21 20 19 19
33 30 27 23 19 15 16 16 15 14 13 11 11 10 10 9 7 6 6 7 9 10 11 13 13 14 15 15 15 14 14 15 17 18 20 21 22 22 23 20 20 19 18
30 29 23 23 20 18 18 16 17 15 15 13 13 12 11 10 9 7 6 5 5 6 8 10 11 12 13 14 14 15 14 15 17 18 19 20 21 22 22 22 21 21 21
24 21 21 22 21 21 20 19 19 18 17 15 15 14 12 11 10 9 6 4 2 4 6 7 8 10 12 14 14 14 15 15 16 17 18 19 20 22 21 21 22 22 21
19 20 21 22 22 21 21 20 22 21 20 18 17 15 13 12 11 9 6 4 1 3 5 5 7 10 12 14 15 15 15 16 17 18 18 19 21 21 22 22 24 24 25
20 21 22 24 23 24 24 24 23 21 19 16 16 14 13 12 10 8 5 2 1 2 4 5 8 10 12 14 16 17 18 19 19 20 20 20 20 21 22 22 23 24 22
22 22 24 24 24 24 24 23 22 20 18 15 14 14 12 11 10 7 5 4 3 3 4 6 8 9 10 12 14 15 16 17 17 18 18 18 19 20 21 21 21 21 22
22 23 23 23 24 23 22 22 22 20 19 18 17 16 13 11 8 7 6 6 5 4 5 6 7 9 10 11 12 14 14 14 14 15 16 16 16 16 17 18 18 20 22
25 25 24 24 25 25 23 22 21 21 21 20 20 17 15 12 10 10 9 8 7 7 8 9 9 9 10 10 11 14 15 16 15 16 17 15 14 15 16 16 18 20 22
25 23 23 22 22 23 23 24 24 23 23 22 21 19 17 14 12 11 11 10 10 9 10 9 9 9 10 11 14 15 14 15 15 15 15 15 15 16 17 19 20 21 22
25 24 22 20 20 23 24 25 25 25 25 24 23 20 18 15 14 13 12 11 11 11 12 10 10 10 10 11 14 17 16 15 15 17 17 18 19 18 19 19 19 20 22

GFSMW_850_spd_171.txt.gz
Wind_Speed
24 22 18 13 10 6 3 3 3 4 5 8 10 10 9 9 10 10 12 12 13 13 13 14 15 16 17 18 19 21 22 23 24 25 24 17 11 1 18 8 16 13 12
25 25 20 15 11 8 3 4 4 3 4 7 10 9 7 7 9 10 11 11 11 13 14 14 15 16 17 18 19 21 22 23 26 25 19 15 13 7 13 10 16 18 21
33 29 23 18 14 7 4 3 4 3 3 4 7 7 6 7 8 9 10 11 13 14 14 15 15 16 17 18 19 19 21 22 22 21 18 10 9 36 16 19 22 28 30
35 32 26 21 13 8 4 2 4 4 3 3 4 7 8 7 6 8 10 11 12 14 15 16 16 17 17 17 17 17 18 19 20 17 17 10 12 11 19 27 30 35 35
42 35 28 20 13 5 5 3 5 4 3 4 4 4 3 2 4 6 9 11 11 13 15 16 16 16 16 17 16 15 17 17 16 17 17 14 14 3 16 27 43 42 38
36 32 25 19 10 10 8 4 5 4 3 3 2 1 3 4 4 5 8 11 12 13 15 15 15 15 15 14 14 15 15 14 14 14 14 14 13 15 15 24 35 40 40
34 31 26 16 16 16 9 5 6 4 4 3 2 3 2 5 6 8 11 12 13 13 14 14 14 14 14 13 13 13 13 13 13 14 14 12 13 16 18 19 24 32 37
32 29 20 23 21 15 9 7 7 5 5 4 3 1 5 5 7 9 12 12 12 13 13 14 14 13 13 13 13 13 13 12 12 12 12 15 14 15 15 16 22 27 20
33 27 30 24 20 14 11 9 8 6 6 5 3 2 3 5 8 10 10 9 10 11 13 13 13 13 13 14 13 14 14 14 13 12 13 14 14 14 16 17 17 18 21
32 32 29 25 20 15 12 11 10 8 7 7 4 2 3 5 6 7 7 9 10 11 13 13 12 13 13 14 14 15 17 16 14 14 14 15 15 15 16 17 20 19 17
37 33 28 25 19 15 13 12 10 8 8 7 5 2 2 3 5 6 7 8 8 11 12 12 12 12 13 14 14 16 18 18 17 16 17 17 17 18 18 18 19 21 20
35 31 29 25 21 16 14 13 10 9 8 8 6 3 2 3 3 5 7 8 9 12 13 13 13 13 13 14 16 17 18 19 19 18 19 21 20 19 19 19 20 22 22
35 31 30 26 21 17 15 11 9 9 9 8 6 5 5 6 5 7 8 10 11 13 15 14 14 14 15 16 16 17 17 18 19 19 19 21 23 22 22 22 22 23 24
37 34 33 27 21 17 14 12 11 11 10 10 8 8 9 10 9 9 9 11 11 12 14 14 14 12 13 14 15 16 17 17 19 19 19 20 23 24 25 24 25 25 26
37 38 36 29 22 18 15 16 13 13 12 11 11 11 12 12 10 10 9 10 11 10 12 12 13 12 14 15 14 14 16 17 18 19 19 20 20 21 23 25 25 25 26
32 38 36 29 25 21 20 19 17 14 14 13 13 13 13 12 10 9 9 9 8 9 9 10 11 12 13 14 14 14 15 15 16 17 18 18 18 19 20 21 22 24 25
27 34 35 31 26 22 23 20 17 17 16 14 14 14 13 12 11 9 9 7 6 7 7 8 10 10 11 12 13 13 13 13 15 16 17 18 19 19 20 20 20 20 21
25 24 31 31 25 23 21 17 20 18 17 16 15 14 13 11 11 10 8 6 5 4 5 6 8 8 9 10 11 12 13 13 14 16 17 17 17 19 19 19 19 20 19
17 18 28 27 23 23 19 22 22 20 18 16 16 16 15 14 13 11 9 6 3 1 2 4 5 6 8 9 10 10 11 12 13 14 14 15 15 16 16 16 17 17 18
12 20 26 22 20 21 24 24 23 22 19 18 18 17 16 15 14 11 8 5 4 3 2 3 4 6 8 9 10 11 11 11 12 14 15 16 18 18 18 17 17 17 19
16 18 19 20 22 25 25 24 23 21 19 19 19 19 18 16 14 11 9 7 6 5 4 4 5 7 9 11 12 12 13 14 14 14 15 16 18 18 20 19 19 19 16
16 18 21 22 24 24 24 24 22 20 20 20 20 20 18 17 15 13 11 9 8 6 6 5 7 8 10 11 11 13 14 14 13 13 14 15 16 16 17 17 17 17 16
15 18 20 24 24 23 23 22 21 21 21 21 20 20 19 17 16 14 12 11 10 9 8 8 9 10 11 11 11 11 11 12 12 12 13 14 13 14 14 15 15 15 16
17 19 22 24 24 24 23 20 21 22 22 22 21 21 20 19 17 15 14 13 11 10 10 10 10 10 9 9 8 10 10 11 13 12 13 13 12 13 14 13 14 16 17
19 20 23 22 22 23 24 23 23 23 24 24 23 23 22 20 18 17 15 14 13 12 11 10 10 9 8 7 8 11 13 11 12 13 14 12 12 12 13 14 15 16 17
21 22 23 22 21 22 24 25 25 25 26 26 26 25 23 22 19 17 16 15 13 12 12 11 11 10 7 6 7 8 10 12 13 15 15 16 15 16 16 16 16 17 18